Weather History for Redmond, OR

Change the Weather History Date:

Tuesday, June 25, 2013

  Actual Average Record
Temperature  
Mean Temperature 60 °F 61 °F  
Max Temperature 66 °F 79 °F 101 °F (1968)
Min Temperature 53 °F 43 °F 26 °F (2001)
Degree Days  
Heating Degree Days 5 5  
Month to date heating degree days 181 194  
Since 1 June heating degree days 181 194  
Since 1 July heating degree days 6402 6690  
Cooling Degree Days 0 1  
Month to date cooling degree days 8 15  
Year to date cooling degree days 17 20  
Since 1 June cooling degree days 8 15  
Growing Degree Days 8 (Base 50)    
Moisture  
Dew Point 47 °F    
Average Humidity 66    
Maximum Humidity 83    
Minimum Humidity 48    
Precipitation  
Precipitation 0.02 in 0.01 in 0.29 in (1980)
Month to date precipitation 0.45 0.56  
Year to date precipitation 1.91 4.60  
Sea Level Pressure  
Sea Level Pressure 29.78 in    
Wind  
Wind Speed 6 mph (South)    
Max Wind Speed 20 mph    
Max Gust Speed 26 mph    
Visibility 10 miles    
Events Rain    
T = Trace of Precipitation, MM = Missing Value Source: NWS Daily Summary

Daily Weather History Graph

Daily Weather History Graph

Search for Another Location

Airport:

Trip Planner

Search our weather history database for the weather conditions in past years. The results will help you decide how hot, cold, wet, or windy it might be!

Date:

Astronomy

Jun. 25, 2013 Rise Set
Actual Time 5:22 AM PDT 8:52 PM PDT
Civil Twilight 4:45 AM PDT 9:29 PM PDT
Nautical Twilight 3:57 AM PDT 10:17 PM PDT
Astronomical Twilight 2:55 AM PDT 11:19 PM PDT
Moon 10:33 PM PDT (6/25) 8:14 AM PDT (6/25)
Length of Visible Light 16h 43m
Length of Day
15h 30m
Waning Gibbous, 92% of the Moon is Illuminated
Jun 25
Waning Gibbous
Jun 29
Last Quarter
Jul 8
New
Jul 15
First Quarter
Jul 22
Full

Hourly Weather History & Observations

Time (PDT) Temp. Dew Point Humidity Pressure Visibility Wind Dir Wind Speed Gust Speed Precip Events Conditions
12:56 AM 53.1 °F 48.0 °F 83% 29.73 in 10.0 mi SSE 3.5 mph - N/A   Partly Cloudy
1:56 AM 54.0 °F 48.0 °F 80% 29.73 in 10.0 mi South 5.8 mph - N/A   Mostly Cloudy
2:56 AM 54.0 °F 48.0 °F 80% 29.73 in 10.0 mi South 4.6 mph - N/A   Overcast
3:56 AM 54.0 °F 46.0 °F 75% 29.72 in 10.0 mi SSE 6.9 mph - 0.00 in   Overcast
4:56 AM 53.1 °F 46.0 °F 77% 29.72 in 10.0 mi South 5.8 mph - N/A   Scattered Clouds
5:56 AM 54.0 °F 46.0 °F 75% 29.73 in 10.0 mi SSW 6.9 mph - N/A   Overcast
6:56 AM 55.0 °F 46.0 °F 72% 29.74 in 10.0 mi South 5.8 mph - N/A   Overcast
7:56 AM 57.0 °F 46.9 °F 69% 29.75 in 10.0 mi SSW 3.5 mph - N/A   Mostly Cloudy
8:56 AM 59.0 °F 46.9 °F 64% 29.75 in 10.0 mi South 6.9 mph - N/A   Partly Cloudy
9:56 AM 62.1 °F 43.0 °F 50% 29.75 in 10.0 mi South 6.9 mph 17.3 mph N/A   Scattered Clouds
10:56 AM 60.1 °F 46.9 °F 62% 29.76 in 10.0 mi SW 10.4 mph 18.4 mph 0.00 in Rain Light Rain
11:56 AM 64.0 °F 45.0 °F 50% 29.76 in 10.0 mi SE 4.6 mph - 0.00 in   Overcast
12:56 PM 60.1 °F 48.9 °F 67% 29.78 in 10.0 mi SSW 5.8 mph - 0.01 in Rain Light Rain
1:56 PM 63.0 °F 48.9 °F 60% 29.78 in 10.0 mi SE 5.8 mph - 0.00 in   Overcast
2:56 PM 64.0 °F 46.0 °F 52% 29.78 in 10.0 mi South 15.0 mph 20.7 mph 0.00 in   Overcast
3:56 PM 63.0 °F 46.9 °F 56% 29.78 in 10.0 mi SSW 11.5 mph - 0.00 in   Overcast
4:56 PM 64.9 °F 45.0 °F 48% 29.80 in 10.0 mi SSW 11.5 mph 21.9 mph 0.01 in   Overcast
5:56 PM 63.0 °F 46.9 °F 56% 29.81 in 10.0 mi North 5.8 mph - 0.00 in   Overcast
6:56 PM 60.1 °F 46.9 °F 62% 29.83 in 10.0 mi Calm Calm - 0.00 in   Overcast
7:56 PM 60.1 °F 48.9 °F 67% 29.85 in 10.0 mi NNE 3.5 mph - N/A   Overcast
8:56 PM 57.9 °F 50.0 °F 75% 29.86 in 10.0 mi Calm Calm - N/A   Mostly Cloudy
9:56 PM 57.0 °F 48.9 °F 74% 29.87 in 10.0 mi NE 3.5 mph - N/A   Mostly Cloudy
10:56 PM 54.0 °F 48.0 °F 80% 29.88 in 10.0 mi Calm Calm - N/A   Partly Cloudy
11:56 PM 55.9 °F 46.9 °F 72% 29.88 in 10.0 mi South 6.9 mph - N/A   Overcast